Avoca, PA

9:36 PM EDT on October 19, 2019 (GMT -0400)
Wilkes-Barre-Scranton International

Weather History for KAVP - August, 2019

Change the Weather History Date:

Monday, August 26, 2019

  Actual Average Record
Temperature  
Mean Temperature 65 °F 68 °F  
Max Temperature 77 °F 79 °F 98 °F (1948)
Min Temperature 52 °F 58 °F 45 °F (1944)
Degree Days  
Heating Degree Days 0 1  
Month to date heating degree days 1 9  
Since 1 June heating degree days 33 71  
Since 1 July heating degree days 1 17  
Cooling Degree Days 0 4  
Month to date cooling degree days 212 143  
Year to date cooling degree days 726 503  
Since 1 June cooling degree days 676 466  
Growing Degree Days 14 (Base 50)    
Moisture  
Dew Point 52 °F    
Average Humidity 70    
Maximum Humidity 96    
Minimum Humidity 43    
Precipitation  
Precipitation 0.00 in 0.11 in 0.90 in (1961)
Month to date precipitation 5.45 2.90  
Year to date precipitation 37.53 24.52  
Sea Level Pressure  
Sea Level Pressure 30.19 in    
Wind  
Wind Speed 5 mph (East)    
Max Wind Speed 10 mph    
Max Gust Speed 15 mph    
Visibility 10 miles    
Events      
T = Trace of Precipitation, MM = Missing Value Source: NWS Daily Summary

Daily Weather History Graph

Daily Weather History Graph

Search for Another Location

Airport or City:

Astronomy

Aug. 26, 2019 Rise Set
Actual Time 6:22 AM EDT 7:45 PM EDT
Civil Twilight 5:54 AM EDT 8:14 PM EDT
Nautical Twilight 5:19 AM EDT 8:49 PM EDT
Astronomical Twilight 4:42 AM EDT 9:25 PM EDT
Moon 1:43 AM EDT (8/26) 5:09 PM EDT (8/26)
Length of Visible Light 14h 20m
Length of Day
13h 22m
Waning Crescent, 19% of the Moon is Illuminated
Aug 26
Waning Crescent
Aug 30
New
Sep 5
First Quarter
Sep 14
Full
Sep 21
Last Quarter

Hourly Weather History & Observations

Time (EDT) Temp. Dew Point Humidity Pressure Visibility Wind Dir Wind Speed Gust Speed Precip Events Conditions
12:54 AM 59.0 °F 54.0 °F 83% 30.23 in 10.0 mi ENE 8.1 mph - N/A   Clear
1:54 AM 59.0 °F 53.1 °F 81% 30.22 in 10.0 mi NE 5.8 mph - N/A   Clear
2:54 AM 57.9 °F 53.1 °F 84% 30.23 in 10.0 mi East 5.8 mph - N/A   Clear
3:54 AM 55.9 °F 52.0 °F 87% 30.22 in 10.0 mi ESE 4.6 mph - N/A   Clear
4:54 AM 54.0 °F 51.1 °F 90% 30.23 in 10.0 mi ESE 4.6 mph - N/A   Clear
5:54 AM 52.0 °F 50.0 °F 93% 30.24 in 10.0 mi East 4.6 mph - N/A   Clear
6:54 AM 53.1 °F 48.9 °F 86% 30.25 in 10.0 mi East 4.6 mph - N/A   Clear
7:54 AM 55.9 °F 48.0 °F 75% 30.25 in 10.0 mi ENE 4.6 mph - N/A   Clear
8:54 AM 60.1 °F 48.9 °F 67% 30.25 in 10.0 mi ESE 3.5 mph - N/A   Clear
9:54 AM 62.1 °F 50.0 °F 65% 30.25 in 10.0 mi East 6.9 mph - N/A   Partly Cloudy
10:54 AM 64.9 °F 52.0 °F 63% 30.23 in 10.0 mi Variable 4.6 mph - N/A   Clear
11:54 AM 70.0 °F 53.1 °F 55% 30.21 in 10.0 mi Variable 4.6 mph - N/A   Clear
12:54 PM 73.0 °F 54.0 °F 51% 30.19 in 10.0 mi North 6.9 mph - N/A   Scattered Clouds
1:54 PM 75.9 °F 52.0 °F 43% 30.16 in 10.0 mi North 9.2 mph - N/A   Clear
2:54 PM 75.9 °F 52.0 °F 43% 30.14 in 10.0 mi Variable 4.6 mph - N/A   Clear
3:54 PM 75.0 °F 53.1 °F 46% 30.13 in 10.0 mi Calm Calm - N/A   Clear
4:54 PM 75.0 °F 52.0 °F 44% 30.12 in 10.0 mi Variable 4.6 mph - N/A   Clear
5:54 PM 73.9 °F 55.0 °F 52% 30.12 in 10.0 mi Variable 5.8 mph - N/A   Clear
6:54 PM 72.0 °F 55.9 °F 57% 30.11 in 10.0 mi Variable 4.6 mph - N/A   Clear
7:54 PM 68.0 °F 57.0 °F 68% 30.12 in 10.0 mi Calm Calm - N/A   Clear
8:54 PM 63.0 °F 57.0 °F 81% 30.14 in 10.0 mi ESE 3.5 mph - N/A   Clear
9:54 PM 62.1 °F 55.0 °F 78% 30.15 in 10.0 mi Variable 4.6 mph - N/A   Clear
10:54 PM 61.0 °F 53.1 °F 75% 30.14 in 10.0 mi SE 5.8 mph - N/A   Clear
11:54 PM 63.0 °F 53.1 °F 70% 30.14 in 10.0 mi Variable 4.6 mph - N/A   Clear